Location: Colle Pacifico
(43.5333°N, 13.3167°E)
Time: 18:12:53
(UTC+00:00)

Cosmos 2263 Rocket - Pass Details

Date: 07 June 2020
Orbit: 825 x 847 km, 71.0° (Epoch: 04 July)

Event Time Altitude Azimuth Distance (km) Brightness Sun altitude
Rises 01:04:12 0° 332° (NNW) 3,386 5.8 -18.3°
Reaches altitude 10° 01:06:40 10° 329° (NNW) 2,445 5.0 -18.1°
Maximum altitude 01:12:11 63° 250° (WSW) 924 2.2 -17.6°
Enters shadow 01:15:48 22° 175° (S) 1,745 3.4 -17.3°
